Weather History for Mosinee, WI

Change the Weather History Date:

Thursday, July 4, 2013

  Actual Average Record
Temperature  
Mean Temperature 66 °F -  
Max Temperature 80 °F 74 °F 95 °F (2012)
Min Temperature 53 °F 54 °F 46 °F (2014)
Cooling Degree Days 2    
Growing Degree Days 16 (Base 50)    
Moisture  
Dew Point 58 °F    
Average Humidity 84    
Maximum Humidity 100    
Minimum Humidity 47    
Precipitation  
Precipitation 0.00 in - - ()
Sea Level Pressure  
Sea Level Pressure 30.04 in    
Wind  
Wind Speed 3 mph (South)    
Max Wind Speed 13 mph    
Max Gust Speed 17 mph    
Visibility 7 miles    
Events Fog    
Averages and records for this station are not official NWS values.
T = Trace of Precipitation, MM = Missing Value Source: NWS Daily Summary

Daily Weather History Graph

Daily Weather History Graph

Search for Another Location

Airport:

Trip Planner

Search our weather history database for the weather conditions in past years. The results will help you decide how hot, cold, wet, or windy it might be!

Date:

Astronomy

Jul. 04, 2013 Rise Set
Actual Time 5:18 AM CDT 8:47 PM CDT
Civil Twilight 4:41 AM CDT 9:24 PM CDT
Nautical Twilight 3:53 AM CDT 10:12 PM CDT
Astronomical Twilight 2:51 AM CDT 11:14 PM CDT
Moon 2:39 AM CDT (7/4) 5:48 PM CDT (7/4)
Length of Visible Light 16h 42m
Length of Day
15h 28m
Waning Crescent, 11% of the Moon is Illuminated
Jul 4
Waning Crescent
Jul 8
New
Jul 15
First Quarter
Jul 22
Full
Jul 29
Last Quarter

Hourly Weather History & Observations

Time (CDT) Temp. Heat Index Dew Point Humidity Pressure Visibility Wind Dir Wind Speed Gust Speed Precip Events Conditions
12:15 AM 55.4 °F - 55.4 °F 100% 30.05 in 7.0 mi Calm Calm - N/A   Clear
12:35 AM 57.2 °F - 55.4 °F 94% 30.05 in 10.0 mi South 3.5 mph - N/A   Mostly Cloudy
1:15 AM 57.2 °F - 57.2 °F 100% 30.05 in 10.0 mi South 3.5 mph - N/A   Scattered Clouds
1:35 AM 57.2 °F - 57.2 °F 100% 30.05 in 10.0 mi Calm Calm - N/A   Clear
1:55 AM 57.2 °F - 57.2 °F 100% 30.05 in 10.0 mi Calm Calm - N/A   Clear
2:15 AM 55.4 °F - 55.4 °F 100% 30.05 in 10.0 mi Calm Calm - N/A   Scattered Clouds
2:35 AM 55.4 °F - 55.4 °F 100% 30.05 in 5.0 mi Calm Calm - N/A   Mostly Cloudy
2:55 AM 53.6 °F - 53.6 °F 100% 30.04 in 5.0 mi Calm Calm - N/A   Mostly Cloudy
3:15 AM 55.4 °F - 55.4 °F 100% 30.04 in 5.0 mi Calm Calm - N/A   Scattered Clouds
3:35 AM 55.4 °F - 55.4 °F 100% 30.04 in 2.5 mi Calm Calm - N/A   Clear
3:55 AM 55.4 °F - 55.4 °F 100% 30.04 in 2.5 mi Calm Calm - N/A   Clear
4:15 AM 55.4 °F - 55.4 °F 100% 30.04 in 2.5 mi Calm Calm - N/A   Clear
4:35 AM 53.6 °F - 53.6 °F 100% 30.04 in 3.0 mi Calm Calm - N/A   Clear
4:55 AM 53.6 °F - 53.6 °F 100% 30.05 in 3.0 mi Calm Calm - N/A   Clear
5:15 AM 53.6 °F - 53.6 °F 100% 30.05 in 1.0 mi Calm Calm - N/A   Mist
5:35 AM 53.6 °F - 53.6 °F 100% 30.06 in 0.2 mi Calm Calm - N/A Fog Fog
5:50 AM 55.4 °F - 55.4 °F 100% 30.06 in 1.0 mi Calm Calm - N/A   Scattered Clouds
6:55 AM 59.0 °F - 59.0 °F 100% 30.07 in 3.0 mi Calm Calm - N/A   Mostly Cloudy
7:55 AM 62.6 °F - 62.6 °F 100% 30.08 in 5.0 mi South 6.9 mph - N/A   Mostly Cloudy
8:50 AM 66.2 °F - 62.6 °F 88% 30.07 in 10.0 mi South 4.6 mph - N/A   Clear
9:50 AM 71.6 °F - 60.8 °F 69% 30.06 in 10.0 mi SSW 8.1 mph - N/A   Clear
10:45 AM 73.4 °F - 62.6 °F 69% 30.06 in 10.0 mi SW 10.4 mph - N/A   Clear
11:50 AM 75.2 °F - 62.6 °F 65% 30.05 in 10.0 mi SW 8.1 mph - N/A   Scattered Clouds
12:45 PM 78.8 °F - 59.0 °F 51% 30.04 in - SSW 10.4 mph 16.1 mph N/A   Clear
1:55 PM 78.8 °F - 57.2 °F 47% 30.03 in 10.0 mi SW 9.2 mph 17.3 mph N/A   Scattered Clouds
2:45 PM 80.6 °F 81.5 °F 60.8 °F 51% 30.03 in 10.0 mi SSW 12.7 mph 16.1 mph N/A   Scattered Clouds
3:45 PM 80.6 °F 81.5 °F 60.8 °F 51% 30.02 in 10.0 mi SSW 11.5 mph - N/A   Scattered Clouds
4:45 PM 80.6 °F 81.1 °F 59.0 °F 48% 30.02 in 10.0 mi SSW 10.4 mph 16.1 mph N/A   Scattered Clouds
5:45 PM 78.8 °F - 57.2 °F 47% 30.01 in 10.0 mi SSW 10.4 mph - N/A   Scattered Clouds
6:45 PM 75.2 °F - 57.2 °F 53% 30.01 in 10.0 mi South 8.1 mph - N/A   Scattered Clouds
7:45 PM 73.4 °F - 60.8 °F 65% 30.01 in 10.0 mi SSW 5.8 mph - N/A   Clear
8:45 PM 69.8 °F - 60.8 °F 73% 30.01 in 10.0 mi South 4.6 mph - N/A   Clear
9:45 PM 66.2 °F - 60.8 °F 83% 30.02 in 10.0 mi South 4.6 mph - N/A   Clear
10:15 PM 64.4 °F - 59.0 °F 83% 30.02 in 10.0 mi SSE 4.6 mph - N/A   Clear
10:35 PM 64.4 °F - 59.0 °F 83% 30.02 in 10.0 mi South 4.6 mph - N/A   Clear
10:55 PM 64.4 °F - 59.0 °F 83% 30.02 in 10.0 mi South 4.6 mph - N/A   Clear
11:15 PM 62.6 °F - 59.0 °F 88% 30.03 in 7.0 mi SE 4.6 mph - N/A   Clear
11:35 PM 62.6 °F - 59.0 °F 88% 30.03 in 7.0 mi SSE 5.8 mph - N/A   Clear
11:55 PM 62.6 °F - 59.0 °F 88% 30.03 in 10.0 mi SSE 4.6 mph - N/A   Clear